EHI
0 0 0 0 0 0 0 0 0 0 0 0 0 0 0 0 0 0 0 0 0 0 0 0 0 0 0 0 0 0 0 0 0 0 0 0 0 0 0 0 0 0 0
0 0 0 0 0 0 0 0 0 0 0 0 0 0 0 0 0 0 0 0 0 0 0 0 0 0 0 0 0 0 0 0 0 0 0 0 0 0 0 0 0 0 0
0 0 0 0 0 0 0 0 0 0 0 0 0 0 0 0 0 0 0 0 0 0 0 0 0 0 0 0 0 0 0 0 0 0 0 0 0 0 0 0 0 0 0
0 0 0 0 0 0 0 0 0 0 0 0 0 0 0 0 0 0 0 0 0 0 0 0 0 0 0 0 0 0 0 0 0 0 0 0 0 0 0 0 0 0 0
0 0 0 0 0 0 0 0 0 0 0 0 0 0 0 0 0 0 0 0 0 0 0 0 0 0 0 0 0 0 0 0 0 0 0 0 0 0 0 0 0 0 0
0 0 0 0 0 0 0 0 0 0 0 0 0 0 0 0 0 0 0 0 0 0 0 0 0 0 0 0 0 0 0 0 0 0 0 0 0 0 0 0 0 0 0
0 0 0 0 0 0 0 0 0 0 0 0 0 0 0 0 0 0 0 0 0 0 0 0 0 0 0 0 0 0 0 0 0 0 0 0 0 0 0 0 0 0 0
0 0 0 0 0 0 0 0 0 0 0 0 0 0 0 0 0 0 0 0 0 0 0 0 0 0 0 0 0 0 0 0 0 0 0 0 0 0 0 0 0 0 0
0 0 0 0 0 0 0 0 0 0 0 0 0 0 0 0 0 0 0 0 0 0 0 0 0 0 0 0 0 0 0 0 0 0 0 0 0 0 0 0 0 0 0
0 0 0 0 0 0 0 0 0 0 0 0 0 0 0 0 0 0 0 0 0 0 0 0 0 0 0 0 0 0 0 0 0 0 0 0 0 0 0 0 0 0 0
0 0 0 0 0 0 0 0 0 0 0 0 0 0 0 0 0 0 0 0 0 0 0 0 0 0 0 0 0 0 0 0 0 0 0 0 0 0 0 0 0 0 0
0 0 0 0 0 0 0 0 0 0 0 0 0 0 0 0 0 0 0 0 0 0 0 0 0 0 0 0 0 0 0 0 0 0 0 0 0 0 0 0 0 0 0
0 0 0 0 0 0 0 0 0 0 0 0 0 0 0 0 0 0 0 0 0 0 0 0 0 0 0 0 0 0 0 0 0 0 0 0 0 0 0 0 0 0 0
0 0 0 0 0 0 0 0 0 0 0 0 0 0 0 0 0 0 0 0 0 0 0 0 0 0 0 0 0 0 0 0 0 0 0 0 0 0 0 0 0 0 0
0 0 0 0 0 0 0 0 0 0 0 0 0 0 0 0 0 0 0 0 0 0 0 0 0 0 0 0 0 0 0 0 0 0 0 0 0 0 0 0 0 0 0
0 0 0 0 0 0 0 0 0 0 0 0 0 0 0 0 0 0 0 0 0 0 0 0 0 0 0 0 0 0 0 0 0 0 0 0 0 0 0 0 0 0 0
0 0 0 0 0 0 0 0 0 0 0 0 0 0 0 0 0 0 0 0 0 0 0 0 0 0 0 0 0 0 0 0 0 0 0 0 0 0 0 0 0 0 0
0 0 0 0 0 0 0 0 0 0 0 0 0 0 0 0 0 0 0 0 0 0 0 0 0 0 0 0 0 0 0 0 0 0 0 0 0 0 0 0 0 0 0
0 0 0 0 0 0 0 0 0 0 0 0 0 0 0 0 0 0 0 0 0 0 0 0 0 0 0 0 0 0 0 0 0 0 0 0 0 0 0 0 0 0 0
0 0 0 0 0 0 0 0 0 0 0 0 0 0 0 0 0 0 0 0 0 0 0 0 0 0 0 0 0 0 0 0 0 0 0 0 0 0 0 0 0 0 0
0 0 0 0 0 0 0 0 0 0 0 0 0 0 0 0 0 0 0 0 0 0 0 0 0 0 0 0 0 0 0 0 0 0 0 0 0 0 0 0 0 0 0
0 0 0 0 0 0 0 0 0 0 0 0 0 0 0 0 0 0 0 0 0 0 0 0 0 0 0 0 0 0 0 0 0 0 0 0 0 0 0 0 0 0 0
0 0 0 0 0 0 0 0 0 0 0 0 0 0 0 0 0 0 0 0 0 0 0 0 0 0 0 0 0 0 0 0 0 0 0 0 0 0 0 0 0 0 0
0 0 0 0 0 0 0 0 0 0 0 0 0 0 0 0 0 0 0 0 0 0 0 0 0 0 0 0 0 0 0 0 0 0 0 0 0 0 0 0 0 0 0
0 0 0 0 0 0 0 0 0 0 0 0 0 0 0 0 0 0 0 0 0 0 0 0 0 0 0 0 0 0 0 0 0 0 0 0 0 0 0 0 0 0 0
0 0 0 0 0 0 0 0 0 0 0 0 0 0 0 0 0 0 0 0 0 0 0 0 0 0 0 0 0 0 0 0 0 0 0 0 0 0 0 0 0 0 0
Wind_Speed
3 3 4 4 4 5 5 6 6 6 7 7 7 8 8 8 8 7 7 8 8 7 7 8 8 7 6 6 6 7 7 7 8 7 5 6 7 7 6 6 6 6 6
3 4 4 4 5 5 5 6 6 7 7 7 7 8 8 8 8 8 8 8 8 8 8 8 9 7 8 7 7 8 8 7 7 8 6 5 7 7 7 6 5 5 5
4 4 4 4 5 5 6 6 6 7 7 7 7 8 8 8 9 9 8 8 8 9 8 8 8 8 8 7 8 8 7 7 7 7 7 5 5 5 5 5 6 5 4
4 5 5 5 5 6 6 6 6 7 7 7 8 8 8 9 9 9 9 9 9 8 8 8 8 9 9 9 8 8 8 8 7 6 6 5 5 5 5 4 4 4 4
4 5 5 5 5 6 6 6 6 7 7 7 8 8 8 8 8 9 9 9 9 8 8 8 8 10 11 9 7 7 7 7 6 6 6 5 5 5 5 4 5 3 4
5 5 5 5 5 5 6 6 7 7 7 7 8 8 9 7 11 14 11 8 8 8 8 8 8 9 10 12 12 11 9 8 7 7 6 7 8 7 5 5 4 4 4
5 5 5 5 5 6 6 6 7 7 7 8 8 8 9 10 13 14 14 9 8 8 8 7 6 7 9 8 10 11 11 11 10 9 9 9 8 7 7 7 7 6 5
4 5 5 5 5 6 6 7 7 7 7 7 8 8 9 10 13 14 14 9 8 8 8 8 8 8 7 8 8 8 8 8 9 8 8 8 7 6 7 7 7 5 3
4 5 5 5 6 6 7 7 7 7 7 7 8 8 9 10 12 13 13 7 7 8 7 8 8 8 10 10 8 8 8 7 8 9 9 8 9 8 7 4 4 4 4
5 5 6 6 6 6 7 7 7 7 7 7 8 8 9 9 11 13 13 6 6 6 6 7 8 9 10 10 7 6 7 7 6 6 5 6 6 6 8 7 5 5 3
5 5 6 6 6 6 6 6 6 7 7 7 8 8 8 9 11 12 12 7 6 6 6 5 5 9 10 10 8 6 7 7 6 5 4 4 3 3 3 4 4 5 5
5 5 6 6 5 5 6 6 6 6 7 7 7 7 6 7 8 10 12 11 9 7 6 5 6 9 10 9 7 7 8 6 4 3 3 3 3 2 2 2 2 2 3
5 5 6 6 5 5 6 6 6 5 5 6 6 6 6 6 7 10 12 12 10 7 5 7 9 9 8 6 6 7 6 4 3 3 3 4 3 2 2 1 1 1 1
5 5 5 5 5 5 5 5 5 5 5 5 6 6 6 6 6 6 6 6 8 6 5 6 8 8 6 5 5 4 3 3 3 3 3 3 3 2 2 1 1 1 1
5 5 5 5 5 5 5 5 6 5 6 7 6 6 7 7 8 11 8 6 5 6 6 4 4 3 3 3 3 3 3 3 3 3 3 3 3 2 2 1 1 1 2
5 5 4 4 5 5 5 5 7 8 10 11 10 10 8 10 13 12 11 10 10 9 6 4 4 3 3 3 3 3 3 3 3 3 3 3 3 2 2 2 2 2 2
5 5 4 5 5 5 5 6 6 7 8 9 10 11 11 12 12 11 10 9 9 8 4 3 3 4 3 3 3 4 4 3 3 3 3 3 3 3 2 2 2 2 2
5 5 5 5 5 5 5 5 5 6 6 6 7 10 11 11 11 11 10 8 5 4 3 4 4 4 4 4 4 4 4 4 3 3 3 3 3 3 3 3 3 3 3
5 4 4 5 5 5 5 5 5 6 6 6 6 7 9 10 10 9 8 4 4 4 4 4 4 4 4 4 4 4 4 4 4 3 3 3 3 3 3 3 3 4 4
4 6 6 5 5 5 5 5 5 5 6 6 6 6 6 6 5 5 4 4 4 4 4 4 4 4 4 4 4 4 4 4 4 4 4 3 3 4 4 4 4 4 4
4 5 7 5 4 4 5 5 5 5 5 6 5 7 9 6 5 5 5 4 4 5 5 5 4 4 4 4 4 4 5 4 4 4 4 4 4 4 4 4 4 4 3
4 4 4 4 4 4 5 5 5 5 6 6 6 6 9 6 5 5 5 5 5 5 5 5 5 4 4 4 4 5 5 5 5 4 4 4 4 4 4 4 4 4 4
4 4 4 4 4 6 6 5 5 5 6 6 6 6 5 5 5 5 5 5 5 5 5 5 5 5 5 5 5 5 5 5 5 5 5 5 5 5 5 5 5 5 5
4 4 4 4 4 4 5 5 5 5 6 6 6 6 6 5 6 6 6 5 5 5 5 5 5 7 8 7 6 5 6 6 6 6 7 7 6 6 5 5 6 6 6
3 4 4 4 4 4 5 5 5 6 6 6 6 6 6 6 6 6 6 6 6 6 7 6 5 6 8 9 8 7 9 11 10 7 6 7 7 7 6 6 6 6 6
3 4 4 4 4 4 5 5 5 6 6 6 6 6 6 6 6 6 6 6 6 6 7 6 7 8 10 9 10 11 12 12 12 11 8 6 7 6 6 6 7 6 6
Wind_Direction
280 282 286 290 291 292 293 294 295 295 296 296 297 297 297 298 296 293 288 287 280 275 273 271 270 269 264 257 253 251 251 251 259 269 269 266 258 254 254 255 253 244 234
281 279 282 287 289 289 292 295 296 295 294 294 295 293 293 294 293 289 287 284 279 275 273 271 270 269 264 263 257 252 250 249 254 265 267 263 260 253 249 249 254 246 234
280 278 281 285 289 291 294 296 296 296 295 294 292 291 292 292 291 287 283 280 277 274 273 271 271 269 267 265 262 256 252 250 250 255 259 261 264 256 250 252 254 243 237
278 276 280 285 290 293 295 296 295 295 294 294 293 292 292 291 288 287 282 279 276 274 273 271 270 268 268 269 265 261 255 251 248 248 252 249 256 256 244 241 247 240 236
276 276 281 285 287 289 292 294 296 294 294 295 295 294 292 290 288 289 285 279 277 275 273 271 269 271 274 275 274 269 258 250 247 245 249 247 244 241 237 236 241 235 245
275 277 283 283 284 288 292 296 297 296 297 296 295 295 293 290 295 295 294 286 280 276 276 276 274 270 273 273 276 274 267 255 250 246 248 243 241 241 242 235 233 228 242
280 283 284 282 285 291 294 295 297 299 299 297 295 295 293 294 298 300 298 294 287 281 278 279 278 276 277 278 277 274 269 262 261 256 250 250 247 241 237 235 233 240 247
289 290 291 290 290 293 294 294 297 297 296 296 296 297 296 296 301 303 302 295 288 284 279 276 276 276 275 281 282 278 275 272 267 259 255 256 260 254 240 241 240 247 269
294 295 296 294 293 294 295 296 297 296 295 296 295 296 297 298 302 304 305 295 286 285 283 279 278 277 279 281 281 279 281 284 282 273 271 265 260 261 257 242 227 217 240
301 299 298 296 292 292 293 295 295 294 293 296 295 296 296 297 302 305 307 296 289 289 286 282 279 283 286 281 278 279 282 287 290 283 274 270 262 249 243 233 227 224 233
304 300 298 296 293 291 292 293 294 293 293 294 295 294 294 297 303 306 307 299 293 290 287 286 285 288 287 284 282 277 281 289 287 284 277 266 261 251 245 245 237 231 229
303 300 300 300 298 296 295 295 295 293 292 293 296 298 297 298 301 306 307 304 298 291 288 286 287 291 291 288 286 287 285 286 281 282 278 269 260 258 261 263 264 274 272
303 302 301 301 300 300 298 297 296 295 292 295 298 300 302 302 305 308 308 309 304 296 292 293 293 292 291 286 286 287 284 279 274 272 276 279 279 275 274 282 304 311 335
302 303 303 303 303 302 300 297 295 298 298 297 298 300 304 305 306 308 308 309 308 302 299 295 292 288 289 292 292 291 289 285 280 275 282 289 291 273 253 247 252 224 234
302 303 304 303 303 301 298 298 298 293 298 303 304 304 304 303 306 310 310 310 310 307 308 300 294 298 299 299 299 300 299 296 289 283 279 283 284 280 276 271 254 234 238
301 304 304 303 303 303 302 301 296 297 305 307 308 307 304 306 311 310 310 309 310 309 303 293 294 293 294 297 297 297 295 294 292 285 277 277 276 274 278 274 253 235 229
299 303 302 302 303 303 304 306 309 308 306 308 313 315 315 317 320 321 319 316 316 315 300 291 291 291 291 291 291 291 291 292 289 282 276 274 278 274 268 259 248 241 234
300 301 301 300 302 301 302 303 306 310 312 313 315 320 321 322 324 326 325 320 315 317 306 297 292 292 290 288 286 285 287 288 283 279 277 271 271 271 265 256 248 240 233
302 303 302 301 300 300 301 301 302 304 305 308 313 319 326 324 324 329 330 322 315 311 307 304 298 294 291 288 286 285 283 281 281 279 275 269 261 263 262 255 252 244 240
298 305 308 303 302 302 303 303 304 306 307 308 312 318 321 322 321 324 325 317 309 305 305 302 299 295 293 290 287 284 281 280 281 274 272 268 260 256 258 252 246 240 239
300 303 306 303 301 304 304 305 306 306 307 308 310 316 321 315 313 314 313 310 306 304 303 301 299 296 292 289 285 282 280 278 276 274 270 268 264 260 260 254 249 243 239
299 300 301 300 303 306 307 306 305 305 307 306 308 313 318 312 307 306 307 305 304 302 301 298 294 293 291 288 285 279 275 274 273 271 268 264 260 256 256 251 247 242 231
300 299 300 301 303 306 308 308 307 306 307 307 309 310 311 309 308 307 305 304 302 299 298 294 290 291 291 288 284 278 275 274 272 269 265 261 257 252 248 246 241 239 233
303 303 302 302 304 305 306 308 308 307 307 307 307 307 307 306 305 306 305 304 302 299 295 290 287 289 292 292 287 280 276 277 276 268 260 257 256 253 246 243 242 238 233
303 303 302 301 302 304 306 306 307 307 306 306 306 305 305 305 304 304 303 303 303 299 298 293 287 288 289 289 288 287 287 285 280 275 263 254 251 247 242 242 239 238 233
306 304 303 302 301 302 302 303 304 305 303 303 303 302 302 302 302 301 301 301 302 300 299 294 291 292 293 291 288 290 292 290 285 281 274 260 251 245 240 238 236 235 231